Home   Weather   France   Paris   Past weeks
Flag for France

Past Weather in Paris, Paris, France — November 2017

Currently: 63 °F. Mostly cloudy. (Weather station: Villacoublay, France). See more current weather

November 2017 Weather in Paris — Graph

°F

High & Low Weather Summary for November 2017

 TemperatureHumidityPressure
High61 °F (Nov 23, 3:00 pm)100% (Nov 3, 6:30 am)30.36 "Hg (Nov 3, 6:30 am)
Low32 °F (Nov 29, 6:00 am)50% (Nov 6, 3:30 pm)29.53 "Hg (Nov 23, 3:30 am)
Average45 °F84%30.06 "Hg
* Reported Nov 1 12:00 am — Nov 30 11:30 pm, Paris. Weather by CustomWeather, © 2024

Note: Actual official high and low records may vary slightly from our data, if they occured in-between our weather recording intervals... More about our weather records

Paris Weather History for November 1, 2017

Scroll right to see more
 ConditionsComfort  
Time TempWeatherWind HumidityBarometerVisibility
12:00 am
Wed, Nov 1
45 °FClear.5 mph76%30.27 "Hg10 mi
12:30 am45 °FClear.3 mph76%30.27 "Hg10 mi
1:00 am45 °FClear.5 mph76%30.27 "Hg10 mi
1:30 am45 °FClear.3 mph76%30.27 "Hg10 mi
2:00 am45 °FClear.3 mph76%30.27 "Hg10 mi
2:30 am43 °FClear.3 mph81%30.27 "Hg10 mi
3:00 am43 °FClear.5 mph81%30.24 "Hg10 mi
3:30 am43 °FClear.5 mph81%30.24 "Hg10 mi
4:00 am45 °FClear.6 mph76%30.24 "Hg10 mi
4:30 am43 °FClear.6 mph81%30.21 "Hg10 mi
5:00 am43 °FPassing clouds.6 mph81%30.21 "HgN/A
5:30 am43 °FPassing clouds.3 mph81%30.21 "HgN/A
6:00 am41 °FPassing clouds.5 mph87%30.21 "HgN/A
6:30 am41 °FClear.3 mph87%30.21 "Hg10 mi
7:00 am41 °FClear.3 mph87%30.21 "Hg10 mi
7:30 am41 °FClear.7 mph87%30.21 "Hg10 mi
8:00 am41 °FSunny.5 mph87%30.21 "Hg10 mi
8:30 am41 °FSunny.8 mph87%30.21 "Hg10 mi
9:00 am43 °FSunny.7 mph81%30.21 "Hg10 mi
9:30 am43 °FSunny.6 mph81%30.21 "Hg10 mi
10:00 am45 °FPassing clouds.5 mph81%30.21 "HgN/A
10:30 am46 °FSunny.3 mph71%30.21 "Hg10 mi
11:00 am48 °FSunny.7 mph71%30.21 "Hg10 mi
11:30 am48 °FPassing clouds.7 mph71%30.21 "HgN/A
12:00 pm52 °FSunny.7 mph62%30.18 "Hg10 mi
12:30 pm52 °FSunny.7 mph62%30.18 "Hg10 mi
1:00 pm54 °FPassing clouds.7 mph58%30.15 "HgN/A
1:30 pm54 °FSunny.7 mph58%30.15 "Hg10 mi
2:00 pm54 °FPassing clouds.6 mph58%30.12 "HgN/A
2:30 pm55 °FPassing clouds.6 mph55%30.12 "HgN/A
3:00 pm55 °FPassing clouds.5 mph59%30.09 "HgN/A
3:30 pm55 °FPassing clouds.5 mph59%30.09 "HgN/A
4:00 pm55 °FPassing clouds.6 mph59%30.09 "HgN/A
4:30 pm55 °FPassing clouds.6 mph59%30.07 "HgN/A
5:00 pm54 °FSunny.5 mph58%30.09 "Hg10 mi
5:30 pm52 °FSunny.2 mph67%30.07 "Hg10 mi
6:00 pm52 °FClear.3 mph67%30.07 "Hg10 mi
6:30 pm52 °FClear.6 mph67%30.07 "Hg10 mi
7:00 pm52 °FClear.5 mph67%30.07 "Hg10 mi
7:30 pm52 °FClear.6 mph67%30.07 "Hg10 mi
8:00 pm50 °FClear.7 mph71%30.07 "Hg10 mi
8:30 pm50 °FClear.7 mph71%30.04 "Hg10 mi
9:00 pm48 °FClear.5 mph76%30.07 "Hg10 mi
9:30 pm48 °FClear.5 mph76%30.04 "Hg10 mi
10:00 pm50 °FClear.6 mph71%30.04 "Hg10 mi
10:30 pm50 °FClear.5 mph71%30.04 "Hg10 mi
11:00 pm50 °FClear.5 mph71%30.04 "Hg10 mi
11:30 pm48 °FClear.3 mph76%30.04 "Hg10 mi
Weather by CustomWeather, © 2024

See weather overview